period_start,C,m1,H,J0,J1,J2,J3,J4,J5,JA,JB,JC,JD,JJ,JK,JN,#
2013-08-25 00:00:06,0.00,0.13,0.00,24.51,27.24,28.67,5.96,30.17,1012.72,2051.03,3433.01,3327.01,3600.98,350.50,321.54,24.82,0000 0000 0000 0000 000000
2013-08-25 00:01:06,0.00,0.13,0.00,24.50,27.24,28.67,5.83,30.04,1012.72,2051.07,3433.00,3327.00,3600.98,349.33,320.48,24.83,0000 0000 0000 0000 000000
2013-08-25 00:02:06,0.02,0.13,0.00,24.45,27.23,28.65,5.84,30.50,1012.72,2051.09,3433.00,3327.00,3600.98,348.58,320.28,24.83,0000 0000 0000 0000 000000
2013-08-25 00:03:07,0.02,0.13,0.00,24.42,27.23,28.64,5.92,30.25,1012.73,2051.11,3433.02,3327.00,3600.99,350.06,321.02,24.84,0000 0000 0000 0000 000000
2013-08-25 00:04:07,0.02,0.13,0.00,24.41,27.22,28.66,5.97,30.17,1012.71,2051.12,3433.02,3327.00,3600.99,350.59,321.74,24.84,0000 0000 0000 0000 000000
2013-08-25 00:05:07,0.00,0.13,0.00,24.39,27.22,28.68,5.90,30.29,1012.71,2051.07,3433.01,3327.00,3600.97,350.12,321.32,24.85,0000 0000 0000 0000 000000
2013-08-25 00:06:07,-0.04,0.13,0.00,24.42,27.22,28.67,5.88,30.42,1012.71,2051.08,3433.01,3327.01,3600.97,349.49,321.13,24.85,0000 0000 0000 0000 000000
2013-08-25 00:07:08,0.02,0.13,0.00,24.57,27.22,28.70,5.77,30.04,1012.71,2051.12,3433.00,3327.01,3600.98,348.77,319.57,24.86,0000 0000 0000 0000 000000
2013-08-25 00:08:08,0.01,0.13,0.00,24.61,27.22,28.68,5.95,30.42,1012.71,2051.12,3433.01,3327.01,3600.98,350.29,320.93,24.87,0000 0000 0000 0000 000000
2013-08-25 00:09:08,0.00,0.13,0.00,24.54,27.22,28.64,5.86,30.00,1012.71,2051.16,3433.04,3327.01,3600.99,350.38,321.40,24.87,0000 0000 0000 0000 000000
2013-08-25 00:10:08,0.02,0.13,0.00,24.53,27.22,28.62,5.86,29.79,1012.71,2051.17,3433.04,3327.01,3600.99,349.07,320.05,24.88,0000 0000 0000 0000 000000
2013-08-25 00:11:09,0.02,0.13,0.00,24.52,27.22,28.63,5.89,30.04,1012.71,2051.16,3433.02,3327.00,3600.99,349.78,320.36,24.88,0000 0000 0000 0000 000000
2013-08-25 00:12:09,-0.02,0.13,0.00,24.54,27.22,28.60,5.88,30.13,1012.71,2051.14,3433.00,3327.00,3600.99,348.99,320.13,24.89,0000 0000 0000 0000 000000
2013-08-25 00:13:09,-0.00,0.13,0.00,24.54,27.22,28.61,5.96,30.00,1012.71,2051.20,3433.01,3327.00,3600.99,350.40,321.42,24.90,0000 0000 0000 0000 000000
2013-08-25 00:14:09,0.03,0.13,0.00,24.55,27.21,28.61,5.88,30.17,1012.71,2051.15,3433.00,3327.00,3600.97,349.88,320.93,24.90,0000 0000 0000 0000 000000
2013-08-25 00:15:09,-0.03,0.13,0.00,24.49,27.20,28.63,5.83,30.21,1012.71,2051.10,3433.00,3327.00,3600.96,349.40,320.56,24.91,0000 0000 0000 0000 000000
2013-08-25 00:16:10,-0.02,0.13,0.00,24.55,27.20,28.63,5.90,29.92,1012.71,2051.10,3433.00,3327.00,3600.96,350.02,321.07,24.91,0000 0000 0000 0000 000000
2013-08-25 00:17:10,0.01,0.13,0.00,24.56,27.20,28.61,5.81,29.92,1012.72,2051.10,3433.00,3327.00,3600.95,350.06,321.09,24.92,0000 0000 0000 0000 000000
2013-08-25 00:18:10,0.00,0.13,0.00,24.52,27.20,28.60,5.90,30.04,1012.71,2051.13,3433.00,3327.00,3600.95,349.90,321.39,24.92,0000 0000 0000 0000 000000
2013-08-25 00:19:10,0.01,0.13,0.00,24.62,27.20,28.59,5.88,29.96,1012.71,2051.16,3433.00,3327.00,3600.97,349.80,320.89,24.93,0000 0000 0000 0000 000000
2013-08-25 00:20:11,0.01,0.13,0.00,24.56,27.20,28.55,5.71,30.29,1012.72,2051.13,3433.00,3327.00,3600.98,349.72,320.89,24.94,0000 0000 0000 0000 000000
2013-08-25 00:21:11,0.00,0.13,0.00,24.51,27.20,28.57,6.02,30.08,1012.71,2051.17,3433.00,3327.00,3600.97,349.96,321.05,24.94,0000 0000 0000 0000 000000
2013-08-25 00:22:11,0.05,0.13,0.00,24.39,27.20,28.59,6.05,30.21,1012.71,2051.24,3433.00,3327.00,3600.94,350.79,321.93,24.95,0000 0000 0000 0000 000000
2013-08-25 00:23:11,0.03,0.13,0.00,24.39,27.20,28.60,5.95,30.08,1012.71,2051.29,3433.02,3327.00,3600.96,349.66,320.87,24.95,0000 0000 0000 0000 000000
2013-08-25 00:24:12,0.01,0.13,0.00,24.49,27.20,28.60,5.72,30.13,1012.71,2051.28,3433.00,3327.00,3600.97,348.93,320.49,24.96,0000 0000 0000 0000 000000
2013-08-25 00:25:12,0.00,0.13,0.00,24.60,27.20,28.58,5.87,30.25,1012.72,2051.19,3433.00,3327.00,3600.89,349.44,320.90,24.97,0000 0000 0000 0000 000000
2013-08-25 00:26:13,-0.04,0.13,0.00,24.59,27.19,28.63,5.88,30.13,1012.72,2051.14,3433.00,3327.00,3600.80,350.24,320.92,24.97,0000 0000 0000 0000 000000
2013-08-25 00:27:13,-0.03,0.13,0.00,24.60,27.19,28.61,6.00,30.13,1012.71,2051.18,3433.00,3327.00,3600.89,350.06,321.17,24.98,0000 0000 0000 0000 000000
2013-08-25 00:28:13,0.00,0.13,0.00,24.69,27.19,28.59,5.77,30.25,1012.71,2051.20,3433.00,3327.00,3600.93,349.87,320.78,24.98,0000 0000 0000 0000 000000
2013-08-25 00:29:13,0.03,0.13,0.00,24.72,27.18,28.63,5.77,30.04,1012.71,2051.19,3433.00,3327.00,3600.93,349.58,320.25,24.99,0000 0000 0000 0000 000000
2013-08-25 00:30:13,-0.01,0.13,0.00,24.74,27.18,28.63,5.87,30.04,1012.71,2051.14,3433.00,3327.00,3600.79,349.95,321.60,25.00,0000 0000 0000 0000 000000
2013-08-25 00:31:14,-0.01,0.13,0.00,24.68,27.17,28.60,5.92,30.17,1012.71,2051.14,3432.98,3327.00,3600.78,350.40,321.27,25.00,0000 0000 0000 0000 000000
2013-08-25 00:32:14,0.00,0.13,0.00,24.57,27.17,28.58,5.85,29.88,1012.72,2051.16,3432.99,3327.00,3600.82,349.62,320.67,25.01,0000 0000 0000 0000 000000
2013-08-25 00:33:14,0.02,0.13,0.00,24.49,27.17,28.56,5.90,30.50,1012.71,2051.25,3432.99,3327.00,3600.88,349.19,320.35,25.01,0000 0000 0000 0000 000000
2013-08-25 00:34:15,0.06,0.13,0.00,24.46,27.17,28.56,5.79,30.13,1012.71,2051.34,3432.99,3327.00,3600.90,348.95,320.18,25.02,0000 0000 0000 0000 000000
2013-08-25 00:35:15,0.12,0.13,0.00,24.38,27.17,28.57,6.05,30.17,1012.71,2051.40,3432.99,3327.00,3600.91,350.18,321.39,25.02,0000 0000 0000 0000 000000
2013-08-25 00:36:15,0.00,0.13,0.00,24.36,27.17,28.56,5.96,30.04,1012.71,2051.34,3432.98,3327.00,3600.88,350.97,322.13,25.03,0000 0000 0000 0000 000000
2013-08-25 00:37:15,-0.03,0.13,0.00,24.38,27.17,28.57,5.84,30.13,1012.71,2051.45,3432.99,3327.00,3600.90,349.66,320.89,25.04,0000 0000 0000 0000 000000
2013-08-25 00:38:16,0.06,0.13,0.00,24.38,27.17,28.59,6.02,30.21,1012.71,2051.55,3432.99,3327.00,3600.93,350.26,322.01,25.04,0000 0000 0000 0000 000000
2013-08-25 00:39:16,0.04,0.14,0.00,24.45,27.17,28.58,5.77,30.21,1012.71,2051.45,3432.99,3327.00,3600.93,349.73,321.29,25.05,0000 0000 0000 0000 000000
2013-08-25 00:40:16,-0.07,0.13,0.00,24.47,27.17,28.57,6.02,30.42,1012.71,2051.43,3432.99,3327.00,3600.91,350.82,321.52,25.05,0000 0000 0000 0000 000000
2013-08-25 00:41:17,0.01,0.13,0.00,24.43,27.17,28.58,5.88,30.33,1012.71,2051.40,3432.98,3327.00,3600.86,350.00,321.18,25.06,0000 0000 0000 0000 000000
2013-08-25 00:42:17,-0.00,0.14,0.00,24.52,27.17,28.54,6.03,30.33,1012.71,2051.30,3432.98,3327.00,3600.81,350.14,321.21,25.07,0000 0000 0000 0000 000000
2013-08-25 00:43:17,-0.05,0.13,0.00,24.69,27.17,28.51,5.80,30.38,1012.71,2051.37,3432.99,3327.00,3600.84,349.82,320.73,25.07,0000 0000 0000 0000 000000
2013-08-25 00:44:17,0.02,0.13,0.00,24.72,27.17,28.49,5.81,29.96,1012.72,2051.41,3432.99,3327.00,3600.84,350.01,320.87,25.08,0000 0000 0000 0000 000000
2013-08-25 00:45:18,0.03,0.13,0.00,24.74,27.17,28.51,5.84,30.08,1012.71,2051.50,3432.97,3327.00,3600.85,350.26,320.60,25.08,0000 0000 0000 0000 000000
2013-08-25 00:46:18,0.05,0.13,0.00,24.72,27.17,28.54,5.79,30.17,1012.72,2051.66,3432.98,3327.00,3600.84,349.13,320.33,25.09,0000 0000 0000 0000 000000
2013-08-25 00:47:18,0.13,0.14,0.00,24.64,27.17,28.55,5.82,30.08,1012.71,2051.75,3432.99,3327.00,3600.88,350.38,321.29,25.09,0000 0000 0000 0000 000000
2013-08-25 00:48:19,0.07,0.14,0.00,24.65,27.17,28.51,5.88,29.96,1012.71,2051.78,3432.99,3327.00,3600.90,349.53,320.50,25.10,0000 0000 0000 0000 000000
2013-08-25 00:49:19,0.02,0.14,0.00,24.58,27.16,28.53,5.86,29.63,1012.71,2051.88,3432.99,3327.00,3600.93,350.38,321.35,25.11,0000 0000 0000 0000 000000
2013-08-25 00:50:19,0.05,0.14,0.00,24.61,27.16,28.51,5.89,30.00,1012.71,2051.84,3432.97,3327.00,3600.87,350.73,321.65,25.11,0000 0000 0000 0000 000000
2013-08-25 00:51:20,-0.01,0.14,0.00,24.54,27.15,28.56,5.86,30.29,1012.71,2051.83,3432.98,3327.00,3600.90,349.64,320.90,25.12,0000 0000 0000 0000 000000
2013-08-25 00:52:20,0.01,0.14,0.00,24.51,27.15,28.58,5.62,30.00,1012.71,2051.87,3432.99,3327.00,3600.87,348.13,319.15,25.12,0000 0000 0000 0000 000000
2013-08-25 00:53:20,0.01,0.14,0.00,24.60,27.15,28.58,5.88,30.08,1012.71,2051.86,3432.97,3327.00,3600.86,349.68,320.70,25.13,0000 0000 0000 0000 000000
2013-08-25 00:54:21,0.01,0.14,0.00,24.62,27.15,28.57,5.88,30.13,1012.71,2051.91,3432.98,3327.00,3600.86,350.05,321.61,25.14,0000 0000 0000 0000 000000
2013-08-25 00:55:21,0.02,0.14,0.00,24.45,27.15,28.56,5.98,29.96,1012.71,2051.92,3432.97,3327.00,3600.90,351.15,322.19,25.14,0000 0000 0000 0000 000000
2013-08-25 00:56:21,0.00,0.14,0.00,24.46,27.15,28.58,6.00,30.08,1012.71,2051.94,3432.97,3327.00,3600.89,350.88,321.84,25.15,0000 0000 0000 0000 000000
2013-08-25 00:57:22,0.02,0.14,0.00,24.61,27.15,28.59,5.87,30.08,1012.71,2051.94,3432.97,3327.00,3600.79,349.89,321.41,25.15,0000 0000 0000 0000 000000
2013-08-25 00:58:22,0.00,0.14,0.00,24.59,27.15,28.57,5.87,30.00,1012.71,2051.92,3432.97,3327.00,3600.78,350.32,321.21,25.16,0000 0000 0000 0000 000000
2013-08-25 00:59:22,-0.02,0.14,0.00,24.62,27.15,28.59,5.82,29.75,1012.71,2051.87,3432.97,3327.00,3600.72,349.69,320.38,25.17,0000 0000 0000 0000 000000
2013-08-25 01:00:22,-0.00,0.14,0.00,24.70,27.15,28.61,5.83,30.04,1012.71,2051.88,3432.98,3327.00,3600.72,349.27,320.33,25.17,0000 0000 0000 0000 000000
2013-08-25 01:01:22,-0.01,0.14,0.00,24.72,27.15,28.61,5.94,30.17,1012.71,2051.88,3432.97,3327.00,3600.76,348.80,319.54,25.18,0000 0000 0000 0000 000000
2013-08-25 01:02:23,0.00,0.14,0.00,24.68,27.15,28.61,5.83,30.04,1012.71,2051.84,3432.92,3327.00,3600.55,349.75,320.67,25.18,0000 0000 0000 0000 000000
2013-08-25 01:03:23,-0.01,0.14,0.00,24.69,27.15,28.60,5.90,30.17,1012.71,2051.78,3432.88,3327.00,3600.44,349.84,320.90,25.19,0000 0000 0000 0000 000000
2013-08-25 01:04:23,-0.01,0.14,0.00,24.83,27.15,28.62,5.88,30.21,1012.71,2051.83,3432.87,3327.00,3600.50,349.57,320.64,25.19,0000 0000 0000 0000 000000
2013-08-25 01:05:23,0.04,0.14,0.00,24.94,27.15,28.61,5.84,30.08,1012.71,2051.87,3432.84,3327.00,3600.41,349.71,320.34,25.20,0000 0000 0000 0000 000000
2013-08-25 01:06:24,0.04,0.14,0.00,25.02,27.15,28.70,5.89,29.75,1012.71,2051.85,3432.86,3327.00,3600.29,350.29,320.54,25.21,0000 0000 0000 0000 000000
2013-08-25 01:07:24,0.01,0.14,0.00,25.12,27.15,28.84,5.88,29.75,1012.71,2051.88,3432.88,3327.00,3600.35,350.00,320.43,25.21,0000 0000 0000 0000 000000
2013-08-25 01:08:24,-0.02,0.14,0.00,25.18,27.15,28.89,5.79,29.88,1012.71,2051.90,3432.92,3327.00,3600.51,349.53,319.93,25.22,0000 0000 0000 0000 000000
2013-08-25 01:09:25,0.01,0.14,0.00,25.19,27.15,28.92,5.85,29.88,1012.71,2051.93,3432.80,3327.00,3600.35,350.17,320.50,25.22,0000 0000 0000 0000 000000
2013-08-25 01:10:25,0.03,0.14,0.00,25.19,27.15,28.97,5.76,29.79,1012.71,2051.93,3432.59,3327.00,3600.22,349.68,320.06,25.23,0000 0000 0000 0000 000000
2013-08-25 01:11:25,0.05,0.14,0.00,25.24,27.15,28.97,5.85,29.75,1012.71,2051.92,3432.44,3327.00,3600.15,349.64,319.97,25.24,0000 0000 0000 0000 000000
2013-08-25 01:12:26,0.01,0.14,0.00,25.26,27.15,29.00,6.08,30.13,1012.71,2051.78,3432.28,3326.98,3600.09,350.26,320.79,25.24,0000 0000 0000 0000 000000
2013-08-25 01:13:26,-0.07,0.14,0.00,25.22,27.16,29.01,5.98,30.00,1012.71,2051.75,3432.20,3326.99,3600.08,349.76,320.10,25.25,0000 0000 0000 0000 000000
2013-08-25 01:14:26,-0.02,0.14,0.00,25.28,27.16,29.02,6.03,30.00,1012.71,2051.79,3432.12,3326.99,3600.04,351.39,321.27,25.25,0000 0000 0000 0000 000000
2013-08-25 01:15:27,0.05,0.14,0.00,25.34,27.17,29.02,5.80,30.00,1012.71,2051.84,3432.08,3326.99,3600.03,349.14,319.74,25.26,0000 0000 0000 0000 000000
2013-08-25 01:16:27,0.04,0.14,0.00,25.34,27.17,29.02,5.94,30.21,1012.70,2051.81,3432.03,3326.98,3600.02,350.02,320.14,25.26,0000 0000 0000 0000 000000
2013-08-25 01:17:27,-0.02,0.14,0.00,25.34,27.17,29.03,5.77,29.75,1012.70,2051.75,3432.03,3326.99,3600.02,350.00,320.19,25.27,0000 0000 0000 0000 000000
2013-08-25 01:18:27,-0.03,0.14,0.00,25.33,27.17,29.02,5.89,29.92,1012.65,2051.79,3432.01,3326.99,3600.03,350.02,319.95,25.28,0000 0000 0000 0000 000000
2013-08-25 01:19:28,0.03,0.14,0.00,25.38,27.17,29.01,5.81,30.04,1012.69,2051.83,3432.04,3326.99,3600.01,350.79,320.88,25.28,0000 0000 0000 0000 000000
2013-08-25 01:20:28,0.02,0.14,0.00,25.47,27.17,29.05,5.82,29.54,1012.67,2051.80,3432.03,3326.98,3600.00,349.59,319.64,25.29,0000 0000 0000 0000 000000
2013-08-25 01:21:28,-0.02,0.14,0.00,25.45,27.17,29.05,5.86,30.04,1012.67,2051.75,3432.02,3326.96,3600.00,349.73,319.82,25.29,0000 0000 0000 0000 000000
2013-08-25 01:22:29,-0.04,0.14,0.00,25.45,27.17,29.07,5.89,30.04,1012.67,2051.66,3432.00,3326.88,3600.00,349.81,319.64,25.30,0000 0000 0000 0000 000000
2013-08-25 01:23:29,-0.03,0.14,0.00,25.40,27.18,29.10,5.88,29.92,1012.68,2051.68,3432.00,3326.91,3600.00,349.51,319.67,25.31,0000 0000 0000 0000 000000
2013-08-25 01:24:29,-0.01,0.14,0.00,25.42,27.19,29.08,5.93,30.04,1012.70,2051.62,3432.01,3326.92,3600.01,350.77,320.80,25.31,0000 0000 0000 0000 000000
2013-08-25 01:25:30,-0.06,0.14,0.00,25.45,27.20,29.09,5.88,29.79,1012.68,2051.55,3432.00,3326.86,3600.00,350.66,320.67,25.32,0000 0000 0000 0000 000000
2013-08-25 01:26:30,-0.04,0.14,0.00,25.42,27.20,28.93,5.86,29.96,1012.70,2051.52,3432.00,3326.85,3600.00,349.41,319.56,25.32,0000 0000 0000 0000 000000
2013-08-25 01:27:30,-0.04,0.14,0.00,25.46,27.20,28.93,5.76,29.75,1012.69,2051.40,3432.00,3326.64,3599.99,349.68,319.85,25.33,0000 0000 0000 0000 000000
2013-08-25 01:28:31,-0.03,0.14,0.00,25.52,27.20,28.93,5.79,29.75,1012.70,2051.36,3432.00,3326.35,3599.97,349.41,319.46,25.34,0000 0000 0000 0000 000000
2013-08-25 01:29:31,0.01,0.14,0.00,25.48,27.20,28.96,5.97,30.25,1012.69,2051.35,3432.00,3326.30,3599.97,350.32,320.42,25.34,0000 0000 0000 0000 000000
2013-08-25 01:30:31,0.04,0.14,0.00,25.45,27.21,29.02,5.88,30.13,1012.70,2051.31,3432.00,3326.26,3599.96,349.83,319.91,25.35,0000 0000 0000 0000 000000
2013-08-25 01:31:31,-0.01,0.14,0.00,25.51,27.22,29.06,5.81,29.88,1012.69,2051.27,3432.00,3326.21,3599.96,350.26,320.21,25.35,0000 0000 0000 0000 000000
2013-08-25 01:32:32,-0.03,0.14,0.00,25.56,27.22,29.01,5.73,29.67,1012.70,2051.23,3432.00,3326.13,3599.96,350.41,320.32,25.36,0000 0000 0000 0000 000000
2013-08-25 01:33:32,-0.01,0.14,0.00,25.59,27.22,29.00,5.84,29.71,1012.71,2051.25,3431.99,3326.15,3599.98,350.66,320.49,25.36,0000 0000 0000 0000 000000
2013-08-25 01:34:32,-0.02,0.14,0.00,25.66,27.22,28.97,5.88,29.83,1012.71,2051.18,3431.97,3326.09,3599.98,350.88,320.46,25.37,0000 0000 0000 0000 000000
2013-08-25 01:35:33,-0.02,0.14,0.00,25.67,27.23,29.10,5.83,29.88,1012.70,2051.13,3431.98,3326.04,3599.84,349.94,320.07,25.38,0000 0000 0000 0000 000000
2013-08-25 01:36:33,0.02,0.14,0.00,25.63,27.24,29.10,5.83,29.96,1012.71,2051.17,3431.95,3326.04,3599.78,349.41,319.61,25.38,0000 0000 0000 0000 000000
2013-08-25 01:37:33,0.02,0.14,0.00,25.63,27.25,29.05,5.87,29.79,1012.70,2051.11,3431.96,3326.02,3599.54,349.81,320.10,25.39,0000 0000 0000 0000 000000
2013-08-25 01:38:34,-0.02,0.14,0.00,25.65,27.25,29.10,5.77,30.00,1012.67,2051.07,3431.91,3326.01,3599.34,348.62,318.93,25.39,0000 0000 0000 0000 000000
2013-08-25 01:39:34,-0.01,0.14,0.00,25.64,27.25,28.99,5.85,29.88,1012.70,2051.05,3431.88,3326.02,3599.20,348.86,319.49,25.40,0000 0000 0000 0000 000000
2013-08-25 01:40:34,0.01,0.14,0.00,25.66,27.25,29.00,5.73,30.17,1012.71,2051.04,3431.76,3326.00,3599.10,349.23,319.14,25.41,0000 0000 0000 0000 000000
2013-08-25 01:41:34,0.02,0.14,0.00,25.65,27.27,29.14,5.86,29.79,1012.71,2051.03,3431.52,3326.00,3599.06,350.37,320.20,25.41,0000 0000 0000 0000 000000
2013-08-25 01:42:35,0.01,0.14,0.00,25.62,27.27,29.14,5.87,30.29,1012.71,2051.01,3431.30,3326.00,3599.02,350.53,320.26,25.42,0000 0000 0000 0000 000000
2013-08-25 01:43:35,0.01,0.14,0.00,25.62,27.27,29.20,5.92,30.21,1012.71,2051.00,3431.13,3326.00,3599.02,349.68,319.61,25.42,0000 0000 0000 0000 000000
2013-08-25 01:44:35,0.02,0.14,0.00,25.68,27.28,29.17,5.86,29.88,1012.71,2051.02,3431.07,3326.00,3599.00,350.52,320.31,25.43,0000 0000 0000 0000 000000
2013-08-25 01:45:35,0.01,0.14,0.00,25.69,27.29,29.22,5.88,29.88,1012.71,2051.03,3431.08,3326.00,3599.00,350.16,319.96,25.43,0000 0000 0000 0000 000000
2013-08-25 01:46:36,0.00,0.14,0.00,25.73,27.30,29.24,5.86,29.92,1012.70,2051.02,3431.09,3325.99,3599.00,350.22,320.03,25.44,0000 0000 0000 0000 000000
2013-08-25 01:47:36,-0.01,0.14,0.00,25.73,27.30,29.25,5.82,29.92,1012.68,2051.02,3431.05,3325.97,3599.00,349.61,319.60,25.45,0000 0000 0000 0000 000000
2013-08-25 01:48:36,0.01,0.14,0.00,25.70,27.30,29.24,5.87,29.83,1012.71,2051.01,3431.02,3325.95,3599.00,350.60,320.36,25.45,0000 0000 0000 0000 000000
2013-08-25 01:49:36,0.01,0.14,0.00,25.72,27.31,29.28,5.84,29.96,1012.71,2051.00,3431.00,3325.92,3599.00,349.42,319.65,25.46,0000 0000 0000 0000 000000
2013-08-25 01:50:37,0.01,0.14,0.00,25.75,27.32,29.28,5.83,30.04,1012.71,2051.01,3431.00,3325.94,3599.00,350.55,320.26,25.46,0000 0000 0000 0000 000000
2013-08-25 01:51:37,-0.01,0.14,0.00,25.83,27.32,29.28,5.87,29.79,1012.71,2051.00,3431.00,3325.92,3598.99,349.88,319.58,25.47,0000 0000 0000 0000 000000
2013-08-25 01:52:37,0.00,0.14,0.00,25.87,27.32,29.32,5.81,29.83,1012.71,2051.00,3431.00,3325.78,3598.98,350.20,319.70,25.48,0000 0000 0000 0000 000000
2013-08-25 01:53:37,0.02,0.14,0.00,25.89,27.34,29.22,5.87,29.79,1012.69,2051.00,3431.00,3325.72,3598.98,350.07,319.81,25.48,0000 0000 0000 0000 000000
2013-08-25 01:54:38,0.01,0.14,0.00,25.88,27.35,29.28,5.80,29.71,1012.69,2051.00,3431.00,3325.67,3598.97,349.66,319.30,25.49,0000 0000 0000 0000 000000
2013-08-25 01:55:38,0.03,0.14,0.00,25.87,27.35,29.27,5.73,29.83,1012.70,2051.00,3430.98,3325.35,3598.82,349.02,318.69,25.49,0000 0000 0000 0000 000000
2013-08-25 01:56:38,0.07,0.14,0.00,25.85,27.35,29.31,5.81,29.71,1012.71,2051.00,3430.97,3325.15,3598.66,349.47,319.24,25.50,0000 0000 0000 0000 000000
2013-08-25 01:57:38,0.06,0.14,0.00,25.85,27.37,29.29,5.94,30.08,1012.70,2051.00,3430.96,3325.07,3598.51,350.14,320.23,25.51,0000 0000 0000 0000 000000
2013-08-25 01:58:39,0.02,0.14,0.00,25.77,27.37,29.34,5.82,29.83,1012.71,2051.00,3430.94,3325.04,3598.28,349.72,319.48,25.51,0000 0000 0000 0000 000000
2013-08-25 01:59:39,0.02,0.14,0.00,25.78,27.37,29.36,5.83,29.79,1012.71,2050.99,3430.80,3325.02,3598.13,349.99,319.71,25.52,0000 0000 0000 0000 000000
2013-08-25 02:00:39,0.04,0.14,0.00,25.82,27.39,29.38,6.03,29.88,1012.70,2050.99,3430.52,3325.00,3598.05,350.08,319.74,25.52,0000 0000 0000 0000 000000
2013-08-25 02:01:40,0.05,0.14,0.00,26.00,27.40,29.42,5.72,29.75,1012.71,2050.99,3430.30,3325.00,3598.02,349.46,319.00,25.53,0000 0000 0000 0000 000000
2013-08-25 02:02:40,0.02,0.14,0.00,26.19,27.40,29.41,5.78,29.58,1012.71,2050.99,3430.26,3325.00,3598.02,350.30,319.56,25.53,0000 0000 0000 0000 000000
2013-08-25 02:03:40,0.01,0.14,0.00,26.31,27.40,29.32,5.86,29.88,1012.71,2050.98,3430.14,3325.00,3598.01,349.74,318.92,25.54,0000 0000 0000 0000 000000
2013-08-25 02:04:40,0.01,0.14,0.00,26.39,27.42,29.38,5.83,29.83,1012.71,2050.98,3430.07,3325.00,3598.00,350.39,319.43,25.55,0000 0000 0000 0000 000000
2013-08-25 02:05:40,0.00,0.14,0.00,26.45,27.42,29.44,5.91,29.71,1012.71,2050.97,3430.02,3325.00,3598.00,350.46,319.57,25.55,0000 0000 0000 0000 000000
2013-08-25 02:06:40,0.00,0.14,0.00,26.49,27.43,29.37,5.83,30.04,1012.68,2050.97,3430.00,3324.96,3598.00,348.86,318.40,25.56,0000 0000 0000 0000 000000
2013-08-25 02:07:41,0.01,0.14,0.00,26.53,27.45,29.53,5.78,29.63,1012.71,2050.94,3430.00,3324.94,3597.99,349.91,318.90,25.56,0000 0000 0000 0000 000000
2013-08-25 02:08:41,-0.01,0.14,0.00,26.58,27.45,29.53,5.84,30.21,1012.70,2050.92,3430.00,3324.87,3597.97,349.88,318.88,25.57,0000 0000 0000 0000 000000
2013-08-25 02:09:41,-0.03,0.14,0.00,26.60,27.46,29.55,5.82,29.83,1012.71,2050.88,3430.00,3324.63,3597.83,350.16,319.10,25.58,0000 0000 0000 0000 000000
2013-08-25 02:10:41,0.09,0.14,0.00,26.64,27.47,29.55,5.75,29.67,1012.71,2050.86,3429.98,3324.43,3597.63,349.10,317.99,25.58,0000 0000 0000 0000 000000
2013-08-25 02:11:41,0.01,0.14,0.00,26.68,27.47,29.58,5.78,29.96,1012.67,2050.71,3429.98,3324.22,3597.34,349.53,318.33,25.59,0000 0000 0000 0000 000000
2013-08-25 02:12:41,-0.00,0.14,0.00,26.68,27.49,29.60,5.67,29.54,1012.69,2050.55,3429.93,3324.08,3597.15,349.85,318.61,25.59,0000 0000 0000 0000 000000
2013-08-25 02:13:42,-0.10,0.14,0.00,26.73,27.50,29.57,5.85,29.83,1012.71,2050.44,3429.71,3324.03,3597.05,349.75,318.62,25.60,0000 0000 0000 0000 000000
2013-08-25 02:14:42,-0.04,0.14,0.00,26.72,27.51,29.60,5.80,29.88,1012.71,2050.28,3429.55,3324.01,3597.02,349.82,318.56,25.60,0000 0000 0000 0000 000000
2013-08-25 02:15:42,-0.06,0.14,0.00,26.70,27.52,29.61,5.80,29.79,1012.71,2050.16,3429.26,3324.00,3597.00,349.86,318.61,25.61,0000 0000 0000 0000 000000
2013-08-25 02:16:42,-0.05,0.14,0.00,26.61,27.52,29.60,5.90,29.75,1012.71,2050.12,3429.11,3324.00,3597.00,349.56,318.41,25.62,0000 0000 0000 0000 000000
2013-08-25 02:17:42,0.00,0.14,0.00,26.47,27.54,29.60,5.78,29.71,1012.71,2050.09,3429.06,3324.00,3597.00,349.90,318.93,25.62,0000 0000 0000 0000 000000
2013-08-25 02:18:42,-0.02,0.14,0.00,26.30,27.55,29.58,5.80,29.79,1012.71,2050.06,3429.02,3324.00,3597.00,349.30,318.51,25.63,0000 0000 0000 0000 000000
2013-08-25 02:19:43,-0.02,0.14,0.00,26.04,27.55,29.61,5.81,29.63,1012.70,2050.04,3429.00,3323.97,3596.98,350.03,319.94,25.63,0000 0000 0000 0000 000000
2013-08-25 02:20:43,-0.00,0.14,0.00,25.81,27.57,29.64,5.84,29.96,1012.71,2050.04,3429.00,3323.95,3596.96,350.78,319.84,25.64,0000 0000 0000 0000 000000
2013-08-25 02:21:43,0.01,0.14,0.00,25.52,27.57,29.73,5.78,29.75,1012.71,2050.01,3428.99,3323.83,3596.73,349.95,320.32,25.65,0000 0000 0000 0000 000000
2013-08-25 02:22:43,0.05,0.14,0.00,25.45,27.59,29.79,5.92,29.75,1012.71,2050.00,3428.98,3323.52,3596.39,349.69,319.73,25.65,0000 0000 0000 0000 000000
2013-08-25 02:23:44,0.08,0.14,0.00,25.63,27.60,29.90,5.85,29.88,1012.69,2050.00,3428.94,3323.37,3596.26,350.39,319.86,25.66,0000 0000 0000 0000 000000
2013-08-25 02:24:44,0.04,0.14,0.00,25.73,27.60,29.97,5.77,30.00,1012.71,2050.00,3428.71,3323.22,3596.14,349.59,319.40,25.66,0000 0000 0000 0000 000000
2013-08-25 02:25:44,0.09,0.14,0.00,25.40,27.62,29.99,5.92,29.75,1012.71,2050.00,3428.51,3323.11,3596.06,350.95,320.98,25.67,0000 0000 0000 0000 000000
2013-08-25 02:26:44,0.04,0.14,0.00,25.02,27.62,30.06,6.02,29.71,1012.71,2050.00,3428.32,3323.07,3596.02,350.27,320.77,25.68,0000 0000 0000 0000 000000
2013-08-25 02:27:44,0.05,0.14,0.00,24.76,27.63,30.11,5.95,29.75,1012.71,2050.00,3428.18,3323.03,3596.00,350.14,320.93,25.68,0000 0000 0000 0000 000000
2013-08-25 02:28:45,0.02,0.14,0.00,24.57,27.65,30.15,5.78,30.08,1012.71,2050.00,3428.08,3323.01,3596.00,349.57,320.28,25.69,0000 0000 0000 0000 000000
2013-08-25 02:29:45,0.01,0.14,0.00,24.42,27.65,30.15,5.85,29.50,1012.71,2049.99,3428.04,3323.00,3596.00,349.64,320.84,25.69,0000 0000 0000 0000 000000
2013-08-25 02:30:45,0.00,0.14,0.00,24.32,27.65,30.14,5.93,30.08,1012.71,2049.98,3428.01,3323.00,3596.00,350.43,321.68,25.70,0000 0000 0000 0000 000000
2013-08-25 02:31:45,0.00,0.14,0.00,24.22,27.67,30.14,5.85,30.04,1012.71,2049.99,3428.00,3323.00,3595.99,349.90,321.13,25.70,0000 0000 0000 0000 000000
2013-08-25 02:32:45,0.01,0.14,0.00,24.14,27.67,30.11,6.13,30.13,1012.71,2049.97,3427.98,3323.00,3595.97,351.14,322.38,25.71,0000 0000 0000 0000 000000
2013-08-25 02:33:45,0.00,0.14,0.00,24.07,27.67,30.13,5.94,29.75,1012.71,2049.98,3427.99,3323.00,3595.97,350.37,322.10,25.72,0000 0000 0000 0000 000000
2013-08-25 02:34:45,0.01,0.14,0.00,24.02,27.67,30.15,5.94,30.38,1012.71,2049.97,3427.99,3322.99,3595.96,349.54,320.84,25.72,0000 0000 0000 0000 000000
2013-08-25 02:35:46,0.00,0.14,0.00,23.96,27.69,30.05,5.83,30.17,1012.71,2049.99,3427.97,3322.95,3595.91,349.78,321.99,25.73,0000 0000 0000 0000 000000